Molokai, HI

10:41 PM HST on July 25, 2017 (GMT -1000)
Molokai

Weather History for PHMK - January, 2012

Change the Weather History Date:

Friday, January 20, 2012

  Actual Average Record
Temperature  
Mean Temperature 73 °F -  
Max Temperature 82 °F 77 °F 85 °F (1984)
Min Temperature 64 °F 62 °F 52 °F (1969)
Cooling Degree Days 8    
Growing Degree Days 23 (Base 50)    
Moisture  
Dew Point 64 °F    
Average Humidity 72    
Maximum Humidity 87    
Minimum Humidity 50    
Precipitation  
Precipitation 0.00 in - - ()
Sea Level Pressure  
Sea Level Pressure 30.13 in    
Wind  
Wind Speed 7 mph (NE)    
Max Wind Speed 12 mph    
Max Gust Speed 23 mph    
Visibility 10 miles    
Events      
Averages and records for this station are not official NWS values.
T = Trace of Precipitation, MM = Missing Value Source: NWS Daily Summary

Daily Weather History Graph

Daily Weather History Graph

Search for Another Location

Airport or City:

Trip Planner

Search our weather history database for the weather conditions in past years. The results will help you decide how hot, cold, wet, or windy it might be!

Date:

Astronomy

Jan. 20, 2012 Rise Set
Actual Time 7:08 AM HST 6:10 PM HST
Civil Twilight 6:44 AM HST 6:34 PM HST
Nautical Twilight 6:17 AM HST 7:01 PM HST
Astronomical Twilight 5:50 AM HST 7:28 PM HST
Moon 4:48 AM HST (1/20) 4:01 PM HST (1/20)
Length of Visible Light 11h 49m
Length of Day
11h 02m
Waning Crescent, 7% of the Moon is Illuminated
Jan 20
Waning Crescent
Jan 22
New
Jan 30
First Quarter
Feb 7
Full
Feb 14
Last Quarter

Hourly Weather History & Observations

Time (HST) Temp. Heat Index Dew Point Humidity Pressure Visibility Wind Dir Wind Speed Gust Speed Precip Events Conditions
12:54 AM 71.1 °F - 64.0 °F 78% 30.14 in 10.0 mi ENE 8.1 mph - N/A   Clear
1:54 AM 68.0 °F - 61.0 °F 78% 30.13 in 10.0 mi North 5.8 mph - N/A   Clear
2:54 AM 69.1 °F - 63.0 °F 81% 30.11 in 10.0 mi North 6.9 mph - N/A   Clear
3:54 AM 71.1 °F - 66.0 °F 84% 30.09 in 10.0 mi NNE 8.1 mph - N/A   Clear
4:54 AM 71.1 °F - 62.1 °F 73% 30.09 in 10.0 mi NE 6.9 mph - N/A   Clear
5:54 AM 70.0 °F - 64.0 °F 81% 30.09 in 10.0 mi Calm Calm - N/A   Clear
6:54 AM 64.9 °F - 61.0 °F 87% 30.10 in 10.0 mi WNW 8.1 mph - N/A   Clear
7:54 AM 69.1 °F - 63.0 °F 81% 30.12 in 10.0 mi ENE 4.6 mph - N/A   Clear
8:54 AM 75.9 °F - 61.0 °F 60% 30.14 in 10.0 mi Variable 3.5 mph - N/A   Clear
9:54 AM 78.1 °F - 63.0 °F 60% 30.15 in 10.0 mi Variable 3.5 mph - N/A   Clear
10:54 AM 79.0 °F - 64.0 °F 60% 30.15 in 10.0 mi West 9.2 mph - N/A   Partly Cloudy
11:54 AM 80.1 °F 81.9 °F 64.9 °F 60% 30.12 in 9.0 mi North 11.5 mph 23.0 mph N/A   Partly Cloudy
12:54 PM 81.0 °F 81.7 °F 61.0 °F 50% 30.08 in 10.0 mi Variable 6.9 mph - N/A   Clear
1:54 PM 82.0 °F 83.0 °F 62.1 °F 51% 30.08 in 10.0 mi SW 10.4 mph 16.1 mph N/A   Partly Cloudy
2:54 PM 80.1 °F 81.2 °F 62.1 °F 54% 30.08 in 10.0 mi Variable 4.6 mph - N/A   Scattered Clouds
3:54 PM 78.1 °F - 64.0 °F 62% 30.09 in 10.0 mi SSW 10.4 mph - N/A   Scattered Clouds
4:54 PM 77.0 °F - 64.9 °F 66% 30.09 in 10.0 mi SSW 5.8 mph - N/A   Scattered Clouds
5:54 PM 75.0 °F - 64.9 °F 71% 30.11 in 10.0 mi SSE 5.8 mph - N/A   Scattered Clouds
6:54 PM 73.0 °F - 66.0 °F 79% 30.14 in 10.0 mi ESE 4.6 mph - N/A   Partly Cloudy
7:33 PM 73.4 °F - 66.2 °F 78% 30.14 in 10.0 mi ENE 3.5 mph - N/A   Overcast
7:54 PM 73.0 °F - 66.0 °F 79% 30.16 in 10.0 mi NE 8.1 mph - N/A   Overcast
8:20 PM 71.6 °F - 64.4 °F 78% 30.16 in 10.0 mi ENE 5.8 mph - N/A   Scattered Clouds
8:54 PM 72.0 °F - 66.0 °F 81% 30.17 in 10.0 mi NE 5.8 mph - N/A   Clear
9:54 PM 71.1 °F - 64.9 °F 81% 30.18 in 10.0 mi NE 8.1 mph - N/A   Clear
10:54 PM 72.0 °F - 66.0 °F 81% 30.17 in 10.0 mi NE 10.4 mph 18.4 mph N/A   Clear
11:54 PM 72.0 °F - 66.0 °F 81% 30.18 in 10.0 mi NE 10.4 mph 20.7 mph N/A   Partly Cloudy